Zurück zum Katalog

STARLINK-38005

AktivKommunikationSSO
NORAD 69677·PAYLOAD·🇺🇸 United States

Gestartet Jun 25, 2026 von Vandenberg Space Force Base

Loading…

Nächste Überflüge (nächste 24 Stunden)

TLE

AktuellSource: CelesTrak SupGP

Epoche: Sep 14, 2026, 21:05 UTC

1 69677C 26145A   26257.87895833  .00051413  00000+0  15966-2 0  2575
2 69677  97.2850 104.5572 0001656  93.7114  44.8966 15.33400810    18

Verfolge STARLINK-38005 in Echtzeit mit AllMySat

Download on the App Store